This demonstration page uses our WeatherBlox Daily Observations layout. Learn more.

Left ArrowRight Arrow

39.92423, -83.80882

Hourly Observations for July 23, 2022

Temp ( °F °C ) Dew Point ( °F °C ) Humidity (%) Winds ( mph kmh ) Pressure ( in mb ) Visibility ( mi km ) Precip ( " mm )
12:56 am 00:56 Clear N/A N/A N/A Calm N/A 10 16 0.00 0.00
1:56 am 01:56 Clear 67 19.4 67 19.4 100 100 Calm 30.03 1017 10 16 0.00 0.00
2:56 am 02:56 Clear 64 18 N/A N/A Calm 30.02 1017 10 16 0.00 0.00
3:56 am 03:56 Clear 63 17 N/A N/A ESE 3 6 30.03 1017 10 16 0.00 0.00
4:56 am 04:56 Clear 66 19 N/A N/A S 5 7 30.02 1017 10 16 0.00 0.00
5:49 am 05:49 Mostly Clear 68 20 N/A N/A Calm 30.01 1016 10 16 0.00 0.00
5:56 am 05:56 Clear 66 19 N/A N/A Calm 30.02 1017 10 16 0.00 0.00
6:03 am 06:03 Mostly Clear 66 19 N/A N/A Calm 30.03 1017 10 16 0.00 0.00
6:56 am 06:56 Sunny 64 18 N/A N/A Calm 30.04 1017 10 16 0.00 0.00
7:56 am 07:56 Sunny 73 23 N/A N/A Calm 30.04 1017 10 16 0.00 0.00
8:56 am 08:56 Sunny 76 24.4 76 24.4 100 100 SSW 6 9 30.05 1018 10 16 0.00 0.00
9:56 am 09:56 Sunny 79 26.1 77 25 94 94 S 5 7 30.04 1017 10 16 0.00 0.00
10:56 am 10:56 Mostly Sunny 78 25.6 78 25.6 100 100 S 5 7 30.05 1018 10 16 0.00 0.00
11:17 am 11:17 Mostly Cloudy with Nearby Thunderstorms 79 26 75 24 89 89 WNW 36 57 30.08 1019 9 14 0.00 0.00
11:22 am 11:22 Mostly Cloudy with Thunderstorms 72 22 68 20 88 88 NNW 28 44 30.11 1020 2 3 0.00 0.00
11:30 am 11:30 Mostly Cloudy with Thunderstorms 68 20 68 20 100 100 NNW 18 30 30.12 1020 1 2 0.00 0.00
11:33 am 11:33 Cloudy with Thunderstorms 66 19 66 19 100 100 NNW 18 30 30.13 1020 1 1 0.00 0.00
11:39 am 11:39 Cloudy with Thunderstorms 66 19 66 19 100 100 NNW 16 26 30.13 1020 1 2 0.00 0.00
11:45 am 11:45 Cloudy with Thunderstorms 66 19 N/A N/A N 14 22 30.14 1021 2 3 0.00 0.00
11:56 am 11:56 Cloudy with Thunderstorms N/A N/A N/A NNE 8 13 N/A 4 6 0.00 0.00
12:20 pm 12:20 Partly Cloudy 68 20 N/A N/A NNW 7 11 30.13 1020 10 16 0.00 0.00
12:56 pm 12:56 Sunny 70 21 N/A N/A SSE 6 9 30.09 1019 10 16 0.00 0.00
1:56 pm 13:56 Sunny 75 23.9 69 20.6 82 82 WSW 9 15 30.05 1018 10 16 0.00 0.00
2:56 pm 14:56 Sunny 79 26.1 71 21.7 77 77 SSW 8 13 30.03 1017 10 16 0.00 0.00
3:56 pm 15:56 Sunny 82 27.8 72 22.2 72 72 SW 10 17 30.03 1017 10 16 0.00 0.00
4:56 pm 16:56 Sunny 82 27.8 68 20 63 63 SW 9 15 30.02 1017 10 16 0.00 0.00
5:56 pm 17:56 Mostly Sunny 84 28.9 68 20 59 59 WSW 8 13 30.04 1017 10 16 0.00 0.00
6:56 pm 18:56 Sunny 82 27.8 68 20 63 63 WSW 5 7 30.04 1017 10 16 0.00 0.00
7:56 pm 19:56 Sunny 79 26.1 69 20.6 72 72 S 3 6 30.03 1017 10 16 0.00 0.00
8:56 pm 20:56 Sunny 76 24.4 74 23.3 94 94 S 3 6 30.03 1017 10 16 0.00 0.00
9:56 pm 21:56 Clear 75 23.9 75 23.9 100 100 S 5 7 30.03 1017 10 16 0.00 0.00
10:56 pm 22:56 Clear 73 23 N/A N/A S 7 11 30.04 1017 10 16 0.01 0.25
11:56 pm 23:56 Clear 74 23.3 74 23.3 100 100 S 6 9 30.04 1017 10 16 0.05 1.27

Powered by AerisWeather